Regional Weather Roundup
Issued by NWS Northern Indiana

Home | Current Version | Previous Version | Text Only | Print | Product List | Glossary On
Versions: 1 2 3 4 5 6 7 8 9 10 11 12 13 14 15 16 17 18 19 20 21 22 23 24 25 26 27 28 29 30 31 32 33 34 35 36 37 38 39 40 41 42 43 44 45 46 47 48 49 50
694
ASUS43 KIWX 301110
RWRIWX

KIWX WEATHER ROUNDUP
NATIONAL WEATHER SERVICE NORTHERN INDIANA
700 AM EDT TUE MAY 30 2017

NOTE: "FAIR" INDICATES FEW OR NO CLOUDS BELOW 12,000 FEET WITH NO
SIGNIFICANT WEATHER AND/OR OBSTRUCTIONS TO VISIBILITY.

* THESE STATIONS ARE NOT UNDER NWS QUALITY CONTROL. THEY ALSO MAY NOT
  REPORT WEATHER SUCH AS PRECIPITATION OR FOG.

INZ001>027-301200-
NORTHERN INDIANA

CITY           SKY/WX    TMP DP  RH WIND       PRES   REMARKS
GARY*          PTCLDY    54  46  76 CALM      29.95R
VALPARAISO     CLEAR     56  48  74 W7        29.95R
MICHIGAN CITY* CLEAR     50  46  87 SW3       29.95R
LAPORTE*       CLEAR     55  47  75 W6        29.95R
KNOX*          CLEAR     54  37  54 SW7       29.95R
SOUTH BEND     CLEAR     50  47  89 CALM      29.94R
ELKHART*       PTCLDY    50  46  87 CALM      29.93
GOSHEN         CLEAR     54  46  74 SW7       29.93R
MONTICELLO*    CLEAR     54  47  78 CALM      29.96R
LOGANSPORT*    CLEAR     52  48  87 SW5       29.97R
ROCHESTER*     CLEAR     59  48  67 W6        29.96R
WARSAW*        CLEAR     55  46  71 W7        29.94R
ANGOLA*        CLEAR     52  50  93 CALM      29.92S
FORT WAYNE     PTCLDY    57  52  83 SW7       29.95R
HUNTINGTON*    CLEAR     55  53  94 SW3       29.96R
PERU/GRISSOM   CLEAR     54  50  86 SW9       29.96R
MARION*        CLEAR     55  50  82 SW8       29.98R

$$
INZ028>050-301200-
CENTRAL INDIANA

CITY           SKY/WX    TMP DP  RH WIND       PRES   REMARKS
LAFAYETTE      CLEAR     51  51 100 W3        29.98R
KOKOMO*        CLEAR     56  50  80 SW8       29.98R
MUNCIE*        CLEAR     60  54  80 S6        29.97R
INDIANAPOLIS   PTCLDY    57  53  86 SW7       30.00R

$$
MIZ043>046-050>051-056>058-064>065-071>073-077>080-301200-
SOUTHWEST LOWER MICHIGAN

CITY           SKY/WX    TMP DP  RH WIND       PRES   REMARKS
BATTLE CREEK   CLEAR     53  47  79 S3        29.92R
BENTON HARBOR  CLEAR     50  47  89 W3        29.92R
COLDWATER*     CLEAR     51  49  93 CALM      29.92R
HILLSDALE*     CLEAR     54  45  71 SW5       29.91R
HOLLAND        PTCLDY    55  50  83 W6        29.91R
GRAND RAPIDS   PTCLDY    53  49  86 SW7       29.89R
KALAMAZOO      CLEAR     50  46  86 S5        29.92R
STURGIS*       CLEAR     52  48  86 CALM      29.92R
THREE RIVERS*  FAIR      51  48  91 SW3       29.93R

$$
OHZ001>008-015>018-024>025-301200-
NORTHWEST OHIO

CITY           SKY/WX    TMP DP  RH WIND       PRES   REMARKS
WAUSEON*       FAIR      57  52  82 SW7       29.93R
DEFIANCE       CLEAR     55  51  86 S3        29.93R
FINDLAY        PTCLDY    59  53  80 S8        29.95R
TOLEDO EXPRESS CLEAR     54  53  97 CALM      29.92R
TOLEDO METCALF CLEAR     60  56  86 SW8       29.94R
LIMA           PTCLDY    59  54  83 S9        29.97R

$$
AND FOR LAKE MICHIGAN COASTAL AND OPEN LAKE BUOY OBSERVATIONS

STATION/POSITION TEMP    WIND        PRES    VSBY  WAVE
                 AIR SEA DIR/SP/G                  HT/PER
                 (F)     (DEG/KT/KT) (MB)    (MI)  (FT/S)
CALUMET HARBOR    57     230/  4/  6 1013.5R
MICHIGAN CITY     59     230/ 13/ 14   N/A
BURNS HARBOR      59     240/  7/ 12 1014.6
4 MI NW BRIDGMAN  58 59  270/ 10/ 14 1013.7          1/ 2
MICHIGAN CITY     58 58  270/ 10/ 12   N/A           1/ 2

$$
&&




USA.gov is the U.S. government's official web portal to all federal, state and local government web resources and services.